TimeEET,TemperatureF,Dew PointF,Humidity,Sea Level PressureIn,VisibilityMPH,Wind Direction,Wind SpeedMPH,Gust SpeedMPH,PrecipitationIn,Events,Conditions,WindDirDegrees,DateUTC
12:00 AM,82.4,57.2,42,29.68,-9999.0,NNE,3.5,-,N/A,,Clear,30,2013-06-23 22:00:00
1:00 AM,82.4,55.4,39,29.68,-9999.0,NNE,8.1,-,N/A,,Clear,20,2013-06-23 23:00:00
2:00 AM,84.2,57.2,40,29.68,-9999.0,North,12.7,-,N/A,,Clear,360,2013-06-24 00:00:00
3:00 AM,82.4,57.2,42,29.68,-9999.0,North,11.5,-,N/A,,Clear,360,2013-06-24 01:00:00
4:00 AM,82.4,55.4,39,29.68,-9999.0,North,10.4,-,N/A,,Clear,360,2013-06-24 02:00:00
5:00 AM,82.4,51.8,35,29.71,-9999.0,North,8.1,-,N/A,,Clear,360,2013-06-24 03:00:00
6:00 AM,86.0,50.0,29,29.71,-9999.0,North,10.4,-,N/A,,Clear,360,2013-06-24 04:00:00
7:00 AM,91.4,50.0,24,29.74,-9999.0,North,10.4,-,N/A,,Clear,360,2013-06-24 05:00:00
8:00 AM,95.0,44.6,18,29.74,-9999.0,North,11.5,-,N/A,,Clear,10,2013-06-24 06:00:00
9:00 AM,95.0,42.8,16,29.74,-9999.0,North,11.5,-,N/A,,Clear,10,2013-06-24 07:00:00
10:00 AM,96.8,44.6,17,29.74,-9999.0,NNE,10.4,-,N/A,,Clear,30,2013-06-24 08:00:00
11:00 AM,98.6,39.2,13,29.74,-9999.0,NE,9.2,-,N/A,,Clear,40,2013-06-24 09:00:00
12:00 PM,100.4,41.0,13,29.74,-9999.0,NE,9.2,-,N/A,,Clear,50,2013-06-24 10:00:00
1:00 PM,102.2,39.2,11,29.71,-9999.0,ENE,8.1,-,N/A,,Clear,60,2013-06-24 11:00:00
2:00 PM,104.0,42.8,12,29.71,-9999.0,NE,5.8,-,N/A,,Clear,40,2013-06-24 12:00:00
3:00 PM,104.0,42.8,12,29.68,-9999.0,ENE,4.6,-,N/A,,Clear,60,2013-06-24 13:00:00
4:00 PM,104.0,41.0,12,29.68,-9999.0,East,4.6,-,N/A,,Clear,90,2013-06-24 14:00:00
5:00 PM,102.2,42.8,13,29.68,-9999.0,Variable,2.3,-,N/A,,Clear,0,2013-06-24 15:00:00
6:00 PM,98.6,39.2,13,29.68,-9999.0,Variable,3.5,-,N/A,,Clear,0,2013-06-24 16:00:00
7:00 PM,91.4,35.6,14,29.68,-9999.0,Variable,2.3,-,N/A,,Clear,0,2013-06-24 17:00:00
8:00 PM,89.6,35.6,15,29.68,-9999.0,Calm,Calm,-,N/A,,Clear,0,2013-06-24 18:00:00
9:00 PM,87.8,35.6,16,29.71,-9999.0,Calm,Calm,-,N/A,,Clear,0,2013-06-24 19:00:00
10:00 PM,86.0,37.4,18,29.71,-9999.0,Calm,Calm,-,N/A,,Clear,0,2013-06-24 20:00:00
11:00 PM,87.8,35.6,16,29.71,-9999.0,North,8.1,-,N/A,,Clear,10,2013-06-24 21:00:00